Weather History for Vinton, IA

Change the Weather History Date:

Sunday, April 7, 2013

  Actual Average Record
Temperature  
Mean Temperature 48 °F -  
Max Temperature 60 °F 61 °F 80 °F (1991)
Min Temperature 37 °F 34 °F 5 °F (1982)
Degree Days  
Heating Degree Days 16    
Moisture  
Dew Point 35 °F    
Average Humidity 65    
Maximum Humidity 81    
Minimum Humidity 40    
Precipitation  
Precipitation 0.00 in - - ()
Sea Level Pressure  
Sea Level Pressure 29.86 in    
Wind  
Wind Speed 8 mph (NE)    
Max Wind Speed 17 mph    
Max Gust Speed 20 mph    
Visibility 10 miles    
Events      
Averages and records for this station are not official NWS values.
T = Trace of Precipitation, MM = Missing Value Source: NWS Daily Summary

Daily Weather History Graph

Daily Weather History Graph

Search for Another Location

Airport:

Trip Planner

Search our weather history database for the weather conditions in past years. The results will help you decide how hot, cold, wet, or windy it might be!

Date:

Astronomy

Apr. 07, 2013 Rise Set
Actual Time 6:40 AM CDT 7:40 PM CDT
Civil Twilight 6:11 AM CDT 8:09 PM CDT
Nautical Twilight 5:37 AM CDT 8:43 PM CDT
Astronomical Twilight 5:01 AM CDT 9:19 PM CDT
Moon 5:00 AM CDT (4/7) 5:11 PM CDT (4/7)
Length of Visible Light 13h 58m
Length of Day
13h 00m
Waning Crescent, 8% of the Moon is Illuminated
Apr 7
Waning Crescent
Apr 10
New
Apr 18
First Quarter
Apr 25
Full
May 2
Last Quarter

Hourly Weather History & Observations

Time (CDT) Temp. Windchill Dew Point Humidity Pressure Visibility Wind Dir Wind Speed Gust Speed Precip Events Conditions
12:15 AM 42.3 °F 36.3 °F 36.1 °F 79% 29.77 in 10.0 mi WNW 10.4 mph - N/A   Overcast
12:35 AM 41.4 °F 35.2 °F 35.4 °F 79% 29.77 in 10.0 mi NW 10.4 mph 16.1 mph N/A   Overcast
12:55 AM 40.6 °F 33.8 °F 34.2 °F 78% 29.78 in 10.0 mi NNW 11.5 mph 19.6 mph N/A   Scattered Clouds
1:15 AM 40.1 °F 35.3 °F 34.3 °F 80% 29.79 in 10.0 mi NW 6.9 mph - N/A   Mostly Cloudy
1:35 AM 40.1 °F 34.7 °F 34.3 °F 80% 29.80 in 10.0 mi NW 8.1 mph - N/A   Overcast
1:55 AM 40.1 °F 34.1 °F 33.8 °F 78% 29.81 in 10.0 mi NW 9.2 mph - N/A   Overcast
2:15 AM 40.1 °F 34.7 °F 34.0 °F 79% 29.81 in 10.0 mi NNW 8.1 mph - N/A   Overcast
2:35 AM 40.1 °F 33.2 °F 33.8 °F 78% 29.81 in 10.0 mi North 11.5 mph 17.3 mph N/A   Overcast
2:55 AM 38.7 °F 32.4 °F 32.9 °F 80% 29.81 in 10.0 mi North 9.2 mph 17.3 mph N/A   Overcast
3:15 AM 38.7 °F 31.8 °F 32.9 °F 80% 29.82 in 10.0 mi NNW 10.4 mph - N/A   Overcast
3:35 AM 38.1 °F 30.2 °F 32.0 °F 79% 29.81 in 10.0 mi North 12.7 mph 17.3 mph N/A   Overcast
3:55 AM 37.4 °F 30.8 °F 32.0 °F 81% 29.82 in 10.0 mi North 9.2 mph - N/A   Overcast
4:15 AM 37.4 °F 30.8 °F 32.0 °F 81% 29.84 in 10.0 mi NNW 9.2 mph - N/A   Overcast
4:35 AM 37.4 °F 31.4 °F 32.0 °F 81% 29.84 in 10.0 mi NNW 8.1 mph - N/A   Overcast
4:55 AM 37.4 °F 31.4 °F 32.0 °F 81% 29.84 in 10.0 mi NNW 8.1 mph - N/A   Overcast
5:15 AM 37.4 °F 32.8 °F 32.2 °F 81% 29.85 in 10.0 mi NNW 5.8 mph - N/A   Overcast
5:35 AM 37.4 °F 32.8 °F 32.2 °F 81% 29.85 in 10.0 mi North 5.8 mph - N/A   Overcast
5:55 AM 37.4 °F 32.8 °F 32.2 °F 81% 29.86 in 10.0 mi NNW 5.8 mph - N/A   Overcast
6:15 AM 37.4 °F 32.8 °F 32.2 °F 81% 29.87 in 10.0 mi NNW 5.8 mph - N/A   Overcast
6:35 AM 37.4 °F 32.8 °F 32.0 °F 81% 29.88 in 10.0 mi North 5.8 mph - N/A   Overcast
6:55 AM 37.4 °F 32.8 °F 32.0 °F 81% 29.89 in 10.0 mi NNW 5.8 mph - N/A   Overcast
7:15 AM 37.4 °F 33.8 °F 32.0 °F 81% 29.90 in 10.0 mi NNW 4.6 mph - N/A   Overcast
7:35 AM 37.4 °F 33.8 °F 32.0 °F 81% 29.91 in 10.0 mi NNW 4.6 mph - N/A   Overcast
7:55 AM 37.4 °F 32.1 °F 32.0 °F 81% 29.92 in 10.0 mi North 6.9 mph - N/A   Overcast
8:15 AM 37.4 °F 31.4 °F 32.0 °F 81% 29.92 in 7.0 mi North 8.1 mph - N/A   Overcast
8:35 AM 37.4 °F 30.8 °F 32.0 °F 81% 29.93 in 7.0 mi NNE 9.2 mph - N/A   Overcast
8:55 AM 37.4 °F 33.8 °F 32.0 °F 81% 29.93 in 10.0 mi North 4.6 mph - N/A   Overcast
9:15 AM 37.4 °F 33.8 °F 32.0 °F 81% 29.95 in 7.0 mi NNE 4.6 mph - N/A   Overcast
9:35 AM 37.4 °F 32.8 °F 31.3 °F 79% 29.95 in 10.0 mi North 5.8 mph - N/A   Overcast
9:55 AM 37.9 °F 35.5 °F 31.5 °F 77% 29.96 in 10.0 mi North 3.5 mph - N/A   Overcast
10:15 AM 37.6 °F - 31.3 °F 78% 29.97 in 7.0 mi Calm Calm - N/A   Overcast
10:35 AM 39.2 °F 35.0 °F 31.8 °F 75% 29.96 in 7.0 mi NNE 5.8 mph - N/A   Overcast
10:55 AM 40.3 °F 35.5 °F 32.0 °F 72% 29.96 in 10.0 mi NNE 6.9 mph - N/A   Overcast
11:15 AM 40.6 °F 37.5 °F 31.5 °F 70% 29.98 in 10.0 mi North 4.6 mph - N/A   Mostly Cloudy
11:35 AM 43.2 °F 41.5 °F 32.4 °F 66% 29.97 in 10.0 mi NE 3.5 mph - N/A   Scattered Clouds
11:55 AM 46.0 °F 44.8 °F 33.6 °F 62% 29.97 in 10.0 mi North 3.5 mph - N/A   Clear
12:15 PM 47.5 °F - 34.2 °F 60% 29.96 in 10.0 mi NNE 3.5 mph - N/A   Clear
12:35 PM 47.5 °F - 32.9 °F 57% 29.96 in 10.0 mi NE 3.5 mph - N/A   Clear
12:55 PM 47.5 °F - 32.5 °F 56% 29.95 in 10.0 mi Calm Calm - N/A   Clear
1:15 PM 50.0 °F - 33.8 °F 54% 29.94 in 10.0 mi East 3.5 mph - N/A   Clear
1:35 PM 52.7 °F - 35.4 °F 52% 29.94 in 10.0 mi Calm Calm - N/A   Clear
1:55 PM 52.7 °F - 34.5 °F 50% 29.94 in 10.0 mi Calm Calm - N/A   Clear
2:15 PM 52.7 °F - 33.6 °F 48% 29.93 in 10.0 mi SE 5.8 mph - N/A   Clear
2:35 PM 55.0 °F - 34.7 °F 46% 29.92 in 10.0 mi South 4.6 mph - N/A   Clear
2:55 PM 55.4 °F - 34.0 °F 44% 29.91 in 10.0 mi SSE 5.8 mph - N/A   Clear
3:15 PM 56.3 °F - 34.3 °F 44% 29.90 in 10.0 mi ESE 4.6 mph - N/A   Clear
3:35 PM 57.6 °F - 35.4 °F 43% 29.89 in 10.0 mi East 6.9 mph - N/A   Clear
3:55 PM 57.6 °F - 34.7 °F 42% 29.88 in 10.0 mi ESE 5.8 mph - N/A   Clear
4:15 PM 59.0 °F - 35.1 °F 41% 29.88 in 10.0 mi East 8.1 mph - N/A   Clear
4:35 PM 59.0 °F - 34.7 °F 40% 29.87 in 10.0 mi SE 8.1 mph - N/A   Clear
4:55 PM 60.1 °F - 35.4 °F 40% 29.87 in 10.0 mi SE 5.8 mph - N/A   Clear
5:15 PM 60.1 °F - 35.6 °F 40% 29.86 in 10.0 mi SSE 6.9 mph - N/A   Clear
5:35 PM 59.7 °F - 35.6 °F 41% 29.85 in 10.0 mi SSE 6.9 mph - N/A   Clear
5:55 PM 60.1 °F - 36.5 °F 41% 29.84 in 10.0 mi SE 8.1 mph - N/A   Clear
6:15 PM 59.0 °F - 36.1 °F 42% 29.84 in 10.0 mi SE 10.4 mph - N/A   Clear
6:35 PM 57.6 °F - 36.1 °F 45% 29.84 in 10.0 mi SE 10.4 mph - N/A   Clear
6:55 PM 58.1 °F - 36.7 °F 45% 29.83 in 10.0 mi SE 9.2 mph - N/A   Clear
7:15 PM 57.6 °F - 37.2 °F 47% 29.83 in 10.0 mi SE 8.1 mph - N/A   Clear
7:35 PM 55.0 °F - 36.9 °F 50% 29.83 in 10.0 mi SE 6.9 mph - N/A   Clear
7:55 PM 55.0 °F - 38.5 °F 54% 29.82 in 10.0 mi ESE 9.2 mph - N/A   Clear
8:15 PM 55.0 °F - 38.5 °F 54% 29.82 in 10.0 mi ESE 9.2 mph - N/A   Clear
8:35 PM 55.0 °F - 38.7 °F 54% 29.81 in 10.0 mi ESE 6.9 mph - N/A   Clear
8:55 PM 54.0 °F - 38.7 °F 56% 29.81 in 10.0 mi ESE 9.2 mph - N/A   Clear
9:15 PM 54.0 °F - 39.0 °F 57% 29.80 in 10.0 mi ESE 10.4 mph - N/A   Clear
9:35 PM 52.7 °F - 38.8 °F 59% 29.78 in 10.0 mi ESE 11.5 mph - N/A   Clear
9:55 PM 52.7 °F - 39.2 °F 60% 29.77 in 10.0 mi ESE 12.7 mph - N/A   Clear
10:15 PM 52.7 °F - 39.2 °F 60% 29.77 in 10.0 mi ESE 15.0 mph - N/A   Clear
10:35 PM 52.7 °F - 38.5 °F 58% 29.76 in 10.0 mi ESE 17.3 mph - N/A   Clear
10:55 PM 52.7 °F - 39.2 °F 60% 29.76 in 10.0 mi ESE 15.0 mph - N/A   Clear
11:15 PM 52.7 °F - 39.6 °F 61% 29.75 in 10.0 mi ESE 11.5 mph - N/A   Clear
11:35 PM 52.7 °F - 40.3 °F 63% 29.74 in 10.0 mi ESE 11.5 mph - N/A   Clear
11:55 PM 52.7 °F - 40.3 °F 63% 29.74 in 10.0 mi ESE 10.4 mph - N/A   Clear